Location: Aalen
(48.8330°N, 10.1000°E)
Time: 20:34:24
(UTC+02:00)

S-56A Canister/Altair - Pass Details

Date: 06 August 2021
Orbit: 632 x 2500 km, 38.9° (Epoch: 19 September)

Event Time Altitude Azimuth Distance (km) Brightness Sun altitude
Rises 18:29:16 0° 271° (W) 5,723 13.5 21.5°
Reaches altitude 10° 18:32:55 10° 266° (W) 4,884 13.8 20.9°
Maximum altitude 18:46:32 50° 198° (SSW) 2,980 10.9 18.7°
Drops below altitude 10° 19:00:10 10° 129° (SE) 4,887 11.2 16.5°
Sets 19:03:50 0° 124° (SE) 5,727 11.4 15.9°
